TimeGMT,TemperatureF,Dew PointF,Humidity,Sea Level PressureIn,VisibilityMPH,Wind Direction,Wind SpeedMPH,Gust SpeedMPH,PrecipitationIn,Events,Conditions,WindDirDegrees,DateUTC
12:20 AM,41.0,37.4,87,29.56,5.0,East,19.6,33.4,N/A,,Overcast,80,2013-03-08 00:20:00
12:50 AM,41.0,37.4,87,29.56,4.3,East,19.6,-,N/A,,Overcast,80,2013-03-08 00:50:00
1:20 AM,41.0,37.4,87,29.56,4.3,ENE,19.6,-,N/A,,Overcast,70,2013-03-08 01:20:00
1:50 AM,41.0,35.6,81,29.56,5.0,ENE,21.9,-,N/A,,Overcast,70,2013-03-08 01:50:00
2:20 AM,41.0,35.6,81,29.53,4.3,East,20.7,-,N/A,,Overcast,80,2013-03-08 02:20:00
2:50 AM,41.0,35.6,81,29.53,4.3,East,19.6,-,N/A,,Overcast,80,2013-03-08 02:50:00
3:20 AM,41.0,35.6,81,29.53,4.3,East,21.9,-,N/A,,Overcast,80,2013-03-08 03:20:00
3:50 AM,41.0,35.6,81,29.53,3.7,East,18.4,-,N/A,,Overcast,80,2013-03-08 03:50:00
4:20 AM,41.0,35.6,81,29.53,3.7,East,18.4,-,N/A,,Overcast,80,2013-03-08 04:20:00
4:50 AM,41.0,35.6,81,29.53,3.7,East,19.6,-,N/A,,Overcast,80,2013-03-08 04:50:00
5:20 AM,41.0,37.4,87,29.53,3.7,East,18.4,-,N/A,,Overcast,80,2013-03-08 05:20:00
5:50 AM,41.0,37.4,87,29.56,3.7,East,17.3,-,N/A,Rain,Light Rain,80,2013-03-08 05:50:00
6:20 AM,41.0,37.4,87,29.53,4.3,East,20.7,32.2,N/A,Rain,Light Rain,80,2013-03-08 06:20:00
6:50 AM,41.0,35.6,81,29.53,5.0,ENE,20.7,-,N/A,Rain,Light Rain,70,2013-03-08 06:50:00
7:20 AM,41.0,35.6,81,29.56,5.6,East,18.4,-,N/A,Rain,Light Rain,80,2013-03-08 07:20:00
7:50 AM,39.2,35.6,87,29.56,6.2,East,19.6,-,N/A,Rain,Light Rain,80,2013-03-08 07:50:00
8:20 AM,41.0,35.6,81,29.56,6.2,ENE,19.6,-,N/A,Rain,Light Rain,70,2013-03-08 08:20:00
8:50 AM,41.0,35.6,81,29.56,6.2,East,18.4,-,N/A,Rain,Light Rain,80,2013-03-08 08:50:00
9:20 AM,41.0,37.4,87,29.56,6.2,East,20.7,-,N/A,Rain,Light Rain,80,2013-03-08 09:20:00
9:50 AM,41.0,37.4,87,29.59,6.2,East,21.9,-,N/A,,Mostly Cloudy,80,2013-03-08 09:50:00
10:20 AM,41.0,37.4,87,29.59,5.6,East,19.6,-,N/A,Rain,Light Rain,80,2013-03-08 10:20:00
10:50 AM,41.0,37.4,87,29.59,5.6,East,18.4,-,N/A,Rain,Light Rain,80,2013-03-08 10:50:00
11:20 AM,41.0,37.4,87,29.59,6.2,ENE,18.4,-,N/A,Rain,Light Rain,70,2013-03-08 11:20:00
11:50 AM,41.0,37.4,87,29.59,6.2,East,19.6,-,N/A,Rain,Light Rain,80,2013-03-08 11:50:00
12:20 PM,41.0,37.4,87,29.59,6.2,ENE,18.4,-,N/A,Rain,Light Rain,70,2013-03-08 12:20:00
12:50 PM,41.0,37.4,87,29.62,5.6,ENE,19.6,-,N/A,Rain,Light Rain,70,2013-03-08 12:50:00
1:20 PM,41.0,37.4,87,29.62,5.6,East,19.6,-,N/A,Rain,Light Rain,80,2013-03-08 13:20:00
1:50 PM,41.0,37.4,87,29.59,5.6,East,20.7,-,N/A,Rain,Light Rain,80,2013-03-08 13:50:00
2:20 PM,41.0,37.4,87,29.59,6.2,ENE,19.6,31.1,N/A,,Overcast,70,2013-03-08 14:20:00
2:50 PM,41.0,37.4,87,29.62,6.2,East,19.6,-,N/A,,Overcast,80,2013-03-08 14:50:00
3:20 PM,41.0,37.4,87,29.62,6.2,ENE,19.6,-,N/A,,Overcast,70,2013-03-08 15:20:00
3:50 PM,41.0,37.4,87,29.62,6.2,ENE,17.3,-,N/A,,Overcast,70,2013-03-08 15:50:00
4:20 PM,41.0,37.4,87,29.62,6.2,ENE,19.6,-,N/A,,Overcast,70,2013-03-08 16:20:00
4:50 PM,41.0,37.4,87,29.62,6.2,ENE,18.4,-,N/A,,Light Drizzle,70,2013-03-08 16:50:00
5:20 PM,39.2,37.4,93,29.65,6.2,East,21.9,-,N/A,,Overcast,80,2013-03-08 17:20:00
5:50 PM,39.2,37.4,93,29.65,6.2,ENE,19.6,-,N/A,,Overcast,70,2013-03-08 17:50:00
6:20 PM,39.2,37.4,93,29.68,6.2,East,18.4,-,N/A,,Overcast,80,2013-03-08 18:20:00
6:50 PM,41.0,35.6,81,29.68,6.2,ENE,21.9,-,N/A,,Overcast,70,2013-03-08 18:50:00
7:20 PM,39.2,35.6,87,29.68,6.2,East,20.7,-,N/A,Rain,Light Rain,80,2013-03-08 19:20:00
7:50 PM,39.2,35.6,87,29.68,6.2,East,18.4,-,N/A,,Overcast,80,2013-03-08 19:50:00
8:20 PM,39.2,35.6,87,29.68,6.2,ENE,17.3,-,N/A,,Overcast,70,2013-03-08 20:20:00
8:50 PM,39.2,35.6,87,29.68,6.2,East,17.3,28.8,N/A,,Overcast,80,2013-03-08 20:50:00
9:20 PM,39.2,35.6,87,29.68,6.2,East,19.6,-,N/A,,Overcast,80,2013-03-08 21:20:00
9:50 PM,39.2,35.6,87,29.68,6.2,East,16.1,-,N/A,,Overcast,80,2013-03-08 21:50:00
10:20 PM,39.2,35.6,87,29.68,6.2,East,18.4,-,N/A,,Overcast,80,2013-03-08 22:20:00
10:50 PM,39.2,35.6,87,29.71,6.2,East,18.4,-,N/A,,Overcast,80,2013-03-08 22:50:00
11:20 PM,39.2,35.6,87,29.71,6.2,ENE,18.4,-,N/A,,Overcast,70,2013-03-08 23:20:00
11:50 PM,39.2,35.6,87,29.71,6.2,ENE,19.6,-,N/A,,Overcast,70,2013-03-08 23:50:00